Weather in Novoyansaitovo

Russia / Republic of Bashkortostan     55°42′25″N   56°51′28″E
temp.,
°C
wind,
m/s
gust,
m/s
humid.,
%
clouds,
%
prec.,
mm/h
press.,
hPa
HPBL,
m
25 february, thu
thu2523:00−24n499466 0.0 1028204
02:00−27n33960 0.0 103036
05:00−29n22940 0.0 103119
08:00−30n11960 0.0 103219
11:00−24wsw11890 0.0 1032148
14:00−19wsw22830 0.0 1031313
17:00−18sw24909 0.0 1030304
20:00−24s239616 0.0 103020
26 february, fri
fri2623:00−27sse23958 0.0 102924
02:00−27sse33960 0.0 102842
05:00−27sse33920 0.0 102850
08:00−27se23890 0.0 102627
11:00−19sse36840 0.0 1025335
14:00−14s368382 0.0 1023651
17:00−13s258690 0.0 1022542
20:00−19se129442 0.0 102120
27 february, sat
sat2723:00−19se339335 0.0 102030
02:00−20se239779 0.0 101725
05:00−19ese389274 0.0 1014159
08:00−17ese51083100 0.0 1010235
11:00−15ese61095100 0.6 1008300
14:00−11ese5892100 0.8 1006441
17:00−9se3692100 1.1 1005518
20:00−11ese4794100 0.3 1005220
28 february, sun
sun2823:00−13e3695100 0.6 1005179
02:00−13e359699 0.4 1004150
05:00−13e229697 0.7 100481
08:00−11e239699 0.4 1004109
11:00−7ese239498 0.9 1004191
14:00−3ese129597 0.4 1004257
17:00−2ne129698 0.8 1005175
20:00−6ene229792 0.3 100753
1 march, mon
mon123:00−8ene129786 0.4 100927
02:00−8ene119784 0.1 101025
05:00−9ne239686 0.4 101168
08:00−12ne349687 0.3 101297
11:00−10nne349488 0.6 1014212
14:00−9nne349394 0.1 1014317
17:00−9n349296 0.3 1015344
20:00−13nnw239797 0.2 101769